Vorticity
nan nan nan nan nan nan nan nan nan nan nan nan nan nan nan nan nan nan nan nan nan nan nan nan nan nan nan nan nan nan nan nan nan nan nan nan nan nan nan nan nan nan nan nan nan nan nan nan nan nan nan nan nan nan
nan 24 17 19 30 30 19 22 36 48 36 18 15 14 12 17 5 -7 9 12 6 7 11 12 16 15 24 21 11 11 15 4 0 7 9 9 10 18 14 12 13 4 6 10 8 11 19 9 2 4 2 11 11 nan
nan 17 17 18 24 26 24 22 20 28 26 21 17 13 15 15 -2 -8 11 10 8 10 11 15 10 7 9 11 13 18 14 8 6 4 7 11 12 10 12 11 12 7 11 8 6 8 8 4 4 5 14 15 8 nan
nan 18 18 18 15 16 16 17 19 16 16 14 14 14 20 13 -7 -0 10 8 4 5 12 13 11 10 8 12 9 10 12 13 12 7 8 9 9 8 12 14 13 12 7 6 12 6 7 9 13 17 9 11 14 nan
nan 17 19 19 16 15 13 14 15 12 12 15 18 20 14 8 2 1 9 12 8 6 13 12 11 11 10 11 8 8 14 15 13 11 7 9 6 8 10 10 13 11 5 6 10 11 16 14 11 13 17 12 11 nan
nan 19 19 19 16 16 14 13 15 16 18 20 18 14 8 3 2 2 6 15 13 8 8 8 15 23 9 5 10 12 13 11 12 11 8 11 12 9 8 11 12 10 3 2 4 10 9 9 14 16 18 15 16 nan
nan 23 21 15 19 18 18 22 19 21 20 15 14 10 7 2 -6 8 14 18 13 10 6 9 16 18 16 7 8 16 15 11 9 11 13 15 10 8 10 11 12 13 4 10 13 10 10 15 9 13 17 21 16 nan
nan 16 19 17 18 18 17 21 18 19 18 10 8 -1 -4 5 11 7 12 18 8 5 10 12 12 15 16 9 16 16 15 12 8 9 11 12 9 10 16 14 7 13 15 12 18 17 6 11 16 15 15 16 15 nan
nan 12 13 15 13 13 14 13 12 9 7 5 1 -2 -1 5 14 14 15 10 8 10 11 9 11 7 11 16 16 12 14 13 13 14 11 11 11 10 12 18 12 14 17 14 14 14 17 10 11 12 14 13 13 nan
nan 13 12 10 11 11 8 7 8 7 5 -4 -11 -4 12 18 14 2 9 15 11 11 12 11 11 8 13 13 12 11 12 14 13 15 13 11 9 -3 4 18 18 9 13 15 14 14 15 14 13 12 14 13 16 nan
nan 12 14 12 9 9 11 11 8 0 -12 -11 7 13 18 11 2 8 10 13 10 11 13 15 14 10 7 9 8 13 14 12 15 14 14 12 5 -6 4 12 14 15 16 17 17 16 18 23 22 18 17 19 20 nan
nan 10 12 13 12 11 9 9 0 -6 4 14 14 15 7 5 9 12 10 11 13 12 14 13 10 11 10 11 13 12 11 13 8 12 14 6 1 7 14 12 13 15 19 19 20 22 21 23 21 16 15 15 17 nan
nan 11 11 13 14 5 -2 1 8 14 20 15 7 8 10 15 15 13 12 9 7 8 12 13 12 12 12 11 9 13 11 11 12 12 11 2 4 14 16 15 13 15 16 15 15 16 17 16 18 17 13 11 12 nan
nan 10 9 8 7 7 10 13 17 13 12 13 13 10 13 10 10 12 11 11 12 10 11 14 13 10 12 15 13 12 11 13 13 11 5 -1 10 19 17 17 13 12 13 13 13 13 12 12 12 14 14 14 12 nan
nan 1 1 6 9 7 5 9 11 18 11 10 13 11 11 9 10 10 15 12 10 12 13 12 10 12 14 11 15 14 11 10 10 11 5 8 15 16 16 16 15 13 13 13 13 13 13 12 12 12 13 14 13 nan
nan -4 4 14 6 7 11 9 11 15 11 8 10 10 12 13 6 11 13 13 12 15 14 12 13 12 10 11 10 14 14 9 11 8 8 15 15 15 15 14 13 14 14 13 12 12 11 11 11 10 12 13 14 nan
nan 11 12 7 2 3 15 15 10 12 14 12 9 10 14 12 7 11 13 14 15 16 13 12 9 14 14 11 10 11 13 12 11 12 11 11 13 15 14 13 13 13 12 12 11 11 12 12 11 9 10 11 11 nan
nan 17 9 5 8 6 5 12 13 11 11 11 12 9 12 11 13 15 13 16 21 17 12 14 10 8 14 13 13 13 13 12 10 11 12 12 12 13 13 12 13 12 11 11 12 12 11 12 12 11 9 10 9 nan
nan 8 5 11 19 15 10 12 12 11 11 11 9 15 15 11 12 17 18 15 15 17 16 9 10 13 13 12 12 12 13 13 11 10 9 9 12 15 14 10 9 10 11 12 12 12 8 9 12 13 11 10 9 nan
nan 4 6 11 20 17 11 12 13 10 11 14 9 8 10 12 14 13 16 18 16 10 11 15 13 13 14 14 14 13 17 18 12 9 9 10 9 8 10 12 11 10 9 7 7 13 13 8 9 11 11 12 12 nan
nan 2 8 13 13 12 14 12 13 14 11 9 12 7 7 6 7 12 14 13 14 18 14 12 13 11 13 16 16 14 14 16 16 15 13 10 10 10 10 10 11 11 11 10 10 8 11 12 10 11 11 11 10 nan
nan 13 10 12 14 10 7 11 15 11 13 11 10 9 9 8 8 10 11 13 12 12 14 13 14 13 10 13 15 16 15 13 12 11 10 11 12 11 11 12 11 10 11 12 10 10 10 9 13 11 11 12 11 nan
nan 11 11 15 12 12 11 13 10 13 14 11 11 11 12 11 11 13 10 10 9 10 13 11 11 13 12 10 8 8 11 12 11 11 10 11 11 11 10 10 11 11 10 10 11 11 8 10 12 11 12 11 11 nan
nan 12 12 15 13 14 11 13 12 13 12 13 13 11 11 12 13 13 11 11 11 11 11 13 14 9 7 7 8 10 12 11 10 11 11 11 9 9 10 11 11 11 11 11 11 11 12 11 10 12 11 11 13 nan
nan 9 16 14 14 13 12 11 13 14 12 13 13 11 11 12 14 13 13 12 10 11 11 12 13 12 12 9 10 7 10 14 13 9 9 14 15 12 11 8 6 10 12 12 11 12 12 11 12 11 11 10 10 nan
nan 11 18 12 14 13 14 13 12 14 13 11 12 12 12 14 13 13 14 11 10 10 11 13 14 11 9 12 12 9 12 16 14 8 9 11 13 14 12 11 12 8 9 12 11 11 11 11 10 11 12 10 11 nan
nan 12 13 13 17 14 11 10 12 12 13 12 12 13 13 12 13 13 11 12 14 11 11 13 15 15 13 11 9 10 11 11 13 13 10 11 12 12 13 13 13 10 9 12 11 10 10 11 10 11 12 11 10 nan
nan 13 14 14 12 15 15 10 11 13 10 11 12 11 14 14 12 12 15 14 12 11 10 11 13 14 13 12 12 12 12 12 10 11 11 7 7 11 12 13 10 10 12 9 11 12 11 11 10 11 11 11 11 nan
nan 13 10 11 13 10 11 16 16 11 12 18 16 14 14 13 16 15 11 11 11 11 11 11 11 11 10 8 9 11 11 13 14 12 11 12 12 9 9 10 10 12 12 12 12 9 11 13 12 12 12 13 12 nan
nan 14 12 9 13 12 12 17 17 11 15 20 18 16 12 9 11 15 15 12 10 10 12 13 13 11 11 10 9 8 9 13 14 14 14 13 12 10 11 10 11 12 12 12 11 13 14 13 15 12 10 10 11 nan
nan 14 11 13 14 13 13 15 9 6 9 10 15 16 12 11 9 10 13 14 14 13 12 10 11 13 12 11 13 15 12 10 9 11 13 14 11 11 10 11 11 12 12 11 11 12 11 13 13 12 11 11 12 nan
nan 20 18 13 13 10 8 9 10 12 11 11 13 13 12 10 12 13 12 11 11 8 10 16 15 11 11 13 13 11 11 15 12 10 11 12 11 11 11 12 13 12 11 12 13 12 10 11 11 11 11 10 10 nan
nan nan nan nan nan nan nan nan nan nan nan nan nan nan nan nan nan nan nan nan nan nan nan nan nan nan nan nan nan nan nan nan nan nan nan nan nan nan nan nan nan nan nan nan nan nan nan nan nan nan nan nan nan nan
CAPE
34 41 30 41 81 54 36 35 41 54 68 85 73 52 62 42 53 26 23 206 198 142 78 27 74 85 76 215 280 73 277 288 408 278 169 59 146 50 33 0 47 36 63 114 153 148 85 2 1 6 98 209 124 76
36 47 49 32 26 25 26 21 52 102 102 40 63 48 61 28 51 26 41 99 323 194 19 57 139 140 98 104 254 251 194 153 84 172 184 29 305 568 34 79 10 84 68 187 111 79 136 30 131 63 91 120 174 97
38 45 30 28 33 38 43 42 34 43 41 33 46 56 40 61 34 31 79 185 149 75 82 54 50 46 7 86 262 161 374 170 182 123 186 274 194 432 218 111 27 38 82 186 114 98 102 143 33 63 115 162 160 90
19 44 43 36 39 41 37 39 38 40 47 56 41 40 39 45 36 24 77 85 84 38 93 52 10 33 30 0 17 185 214 308 322 312 370 282 302 37 287 176 169 106 99 52 54 23 71 67 76 164 128 67 55 13
18 32 30 34 43 47 45 30 20 15 25 38 52 71 59 33 46 46 57 81 74 18 68 40 25 29 138 10 10 121 293 278 192 435 444 165 88 82 143 205 131 44 57 214 118 29 232 270 256 67 147 97 0 0
4 11 25 25 30 32 31 20 15 20 40 48 37 21 36 37 6 15 8 21 69 30 23 57 63 37 65 22 5 52 183 195 204 83 275 59 0 53 187 62 0 0 16 38 41 136 114 106 50 11 51 86 19 0
7 2 11 9 12 16 17 20 19 17 19 5 8 29 27 14 24 42 42 7 4 35 28 5 35 88 63 41 36 248 212 133 207 112 191 163 174 103 312 118 0 0 0 0 16 44 8 9 23 0 3 12 0 0
3 3 4 7 4 5 4 1 5 9 15 17 19 22 9 2 7 50 58 3 10 19 2 13 60 121 130 156 166 257 268 265 150 70 82 124 156 152 101 4 0 0 2 62 34 18 12 0 0 0 0 0 0 0
2 3 2 1 1 4 7 5 10 15 22 24 9 6 7 19 26 28 0 0 51 41 40 76 64 98 2 33 119 142 104 144 101 112 106 96 139 101 49 14 3 6 0 0 0 0 0 0 0 0 0 0 0 0
6 2 1 0 1 0 1 0 2 5 3 0 10 11 11 46 2 1 19 38 48 70 196 109 70 12 3 9 5 4 22 43 22 0 105 73 91 14 3 3 1 0 0 0 0 0 0 0 0 0 0 0 0 0
39 27 17 13 7 3 2 5 6 0 0 19 10 32 61 0 12 68 52 22 11 81 72 63 96 35 80 20 10 6 2 0 1 36 251 106 40 12 8 10 8 4 1 0 0 0 0 0 0 0 0 0 0 0
45 41 37 27 22 16 10 1 0 26 37 4 39 40 99 92 70 49 6 9 17 85 92 78 45 23 3 13 7 11 4 9 33 1 177 3 10 9 8 9 6 3 3 3 2 1 0 0 0 0 1 1 2 2
6 17 31 34 29 27 35 21 1 1 20 161 139 71 88 28 27 1 45 166 14 4 2 43 34 17 10 17 11 7 19 9 0 8 13 26 15 8 12 11 4 3 2 3 4 4 4 3 2 2 4 3 2 2
5 2 0 0 0 0 0 0 0 0 55 6 73 16 29 23 16 10 11 13 8 2 1 3 1 7 2 14 0 14 6 9 21 18 21 24 23 16 12 7 2 4 3 2 3 2 2 1 2 3 2 3 3 5
0 0 0 0 0 0 0 0 0 0 3 6 0 6 11 17 12 14 17 11 8 10 6 1 1 5 2 8 10 56 37 12 15 21 25 19 27 17 14 12 9 7 6 7 7 10 8 7 6 7 7 6 4 3
1 13 18 1 0 0 0 0 0 4 11 5 4 6 5 12 14 13 14 7 8 2 2 2 8 10 9 12 5 11 6 9 22 27 22 20 21 17 16 14 14 16 15 14 14 12 9 6 6 9 7 8 8 9
5 24 0 0 0 0 0 0 0 3 14 12 18 14 12 13 15 19 20 12 16 17 12 10 2 7 14 7 4 9 10 17 17 16 22 13 9 11 12 15 15 15 15 14 11 10 12 12 8 7 7 8 5 7
7 2 0 0 0 0 0 4 10 13 11 13 17 21 17 19 9 11 17 8 11 12 8 6 3 6 8 7 12 21 19 14 15 10 9 12 11 8 9 11 9 10 10 8 10 13 14 12 9 16 10 12 8 10
13 11 0 0 0 1 7 11 1 6 11 19 12 17 26 19 12 11 16 8 0 1 1 1 2 9 15 18 25 24 29 18 15 13 12 9 10 12 11 8 8 11 11 11 7 12 9 6 15 14 14 9 11 16
1 0 0 0 0 1 7 8 0 4 12 13 8 15 21 19 26 36 19 9 0 0 2 6 15 22 18 19 17 13 18 32 17 10 11 14 14 7 13 11 13 10 5 5 4 2 4 5 7 9 10 10 11 10
0 0 0 0 4 1 6 20 17 13 13 21 20 12 13 8 24 25 20 3 15 11 20 29 24 26 20 23 20 11 10 6 12 11 12 10 14 9 8 8 5 4 4 5 3 1 1 2 2 4 8 10 8 9
2 0 0 0 0 0 2 1 15 15 7 13 2 4 9 11 12 11 4 9 21 22 28 17 19 12 9 10 10 7 8 5 5 4 2 3 4 4 5 5 2 2 2 3 3 5 3 2 4 5 9 11 7 5
0 0 0 0 1 0 0 1 1 4 5 3 4 3 6 10 7 1 9 12 19 30 16 12 11 7 7 3 0 1 1 0 1 2 3 2 3 5 3 3 4 4 4 2 2 4 5 0 2 6 9 8 11 12
0 0 0 0 0 1 0 2 1 5 9 8 4 3 5 9 1 6 8 12 22 16 12 12 13 7 2 0 1 2 1 1 2 5 4 1 1 0 1 1 2 5 5 6 8 9 9 10 3 9 9 7 7 8
0 0 0 0 0 0 1 3 6 4 7 5 4 5 8 5 4 7 7 14 19 22 17 8 7 9 14 13 8 3 0 2 2 1 4 7 11 6 4 3 2 2 6 11 11 11 9 9 8 7 6 6 4 3
1 4 2 4 2 1 2 1 3 5 6 5 6 4 7 4 1 4 8 22 18 16 17 21 14 11 8 6 6 4 1 1 0 1 0 0 0 5 4 2 3 4 7 10 8 7 4 4 4 2 4 3 1 3
0 5 7 4 5 5 7 9 6 5 5 4 6 2 1 0 3 6 14 20 11 12 10 15 11 8 6 5 2 1 1 0 0 0 0 0 1 2 4 4 3 4 7 5 7 7 6 5 5 4 4 6 6 5
3 1 0 2 1 2 0 2 3 4 7 3 1 1 0 2 4 17 14 11 13 11 9 8 7 7 8 7 8 7 5 1 1 0 3 4 4 5 3 6 0 0 4 3 5 6 6 7 6 5 4 4 3 5
4 4 0 0 0 2 4 5 6 6 4 7 2 2 3 6 15 16 13 10 11 12 10 8 9 8 7 6 6 7 6 4 1 0 0 1 3 7 6 7 9 7 8 7 0 1 2 4 4 3 2 6 5 8
2 6 0 0 0 3 9 11 11 11 7 6 3 5 9 12 10 16 12 11 11 13 10 10 8 9 8 7 7 3 4 3 2 2 3 2 5 4 4 7 8 8 8 7 6 5 0 2 2 3 1 3 5 3
3 2 1 2 5 16 15 12 11 10 8 12 8 7 8 11 10 7 7 9 7 6 8 6 5 5 4 2 3 1 3 4 0 0 0 2 2 4 6 6 8 7 7 6 4 4 2 2 4 3 3 1 0 1
4 0 0 0 6 6 5 9 9 7 8 8 7 6 9 10 6 9 7 8 8 6 0 2 6 7 3 3 1 0 0 1 2 1 0 2 6 5 6 6 7 6 5 3 4 4 1 1 2 2 2 1 0 0
2 2 1 2 3 4 5 3 2 4 5 5 7 5 6 5 3 7 4 4 6 7 6 5 5 5 1 0 1 0 0 1 0 0 0 0 0 0 1 6 7 4 3 4 4 4 2 0 1 1 0 0 0 0